Theta_e
320 319 318 315 314 313 311 308 306 306 306 308 311 313 314 315 316 317 319 325 326 326 326 326 325 323 321 319 317 317 315 314 312 312 311 311 310 309 308 308 307 307 307
318 318 316 314 312 312 311 308 306 303 302 303 306 308 310 312 312 314 315 319 323 325 326 326 325 324 323 320 317 315 314 312 311 311 310 310 308 307 306 306 306 306 306
316 316 314 313 312 311 311 308 306 302 300 301 302 305 306 305 306 307 310 312 315 320 324 327 326 325 323 320 318 316 313 312 310 310 311 308 306 305 305 304 304 304 304
317 315 313 313 313 312 312 309 307 304 300 300 299 300 302 303 304 304 306 308 310 311 318 323 326 326 324 321 318 317 314 312 310 309 310 308 305 304 304 303 302 302 303
318 316 315 314 315 313 312 310 307 306 301 299 299 299 300 300 301 305 304 307 307 310 311 318 323 323 325 323 320 318 317 314 311 310 309 307 305 304 303 301 301 301 302
320 318 317 316 315 314 311 309 306 305 304 301 301 299 298 299 299 300 304 307 306 308 310 314 318 318 321 324 322 320 318 317 313 311 310 308 305 304 302 300 300 301 301
323 320 319 318 316 313 313 310 307 304 302 302 300 300 300 299 299 298 300 304 305 306 307 310 311 311 314 321 321 319 317 316 315 313 310 309 306 305 302 301 300 300 300
321 321 319 317 315 313 311 309 306 303 303 301 299 298 297 299 300 300 298 300 301 303 305 306 307 307 307 309 312 318 315 315 315 313 311 310 307 306 304 303 302 301 300
317 319 319 317 315 313 311 309 307 304 302 301 302 302 296 296 297 298 298 297 298 299 302 304 304 304 304 304 308 312 315 314 314 312 311 310 308 307 306 305 304 302 301
317 317 318 318 316 314 312 311 310 306 305 303 304 304 302 300 297 296 297 300 299 299 298 301 303 304 303 302 303 305 306 309 311 312 311 311 310 309 308 306 305 304 303
316 317 315 315 316 315 314 313 311 308 308 307 305 303 302 300 298 298 297 297 297 299 298 298 300 300 300 300 299 300 304 305 307 310 311 310 310 310 309 308 307 306 304
311 314 315 315 315 315 313 312 311 310 309 309 308 307 303 301 299 298 297 297 296 298 299 299 298 298 298 297 299 301 302 302 304 307 309 310 310 309 309 309 308 307 306
310 312 312 313 313 314 314 314 313 313 311 310 309 308 307 305 304 301 299 297 296 296 295 296 297 299 299 298 298 301 302 301 301 303 305 307 309 309 309 308 308 307 306
311 312 314 315 314 315 315 316 316 314 313 311 310 309 307 305 303 301 299 297 292 292 292 294 295 297 297 296 297 299 298 299 300 301 302 304 305 306 307 307 307 306 306
313 312 314 316 317 318 317 317 317 315 312 311 310 307 306 305 303 301 298 298 296 291 291 294 295 295 295 295 294 296 294 296 298 299 299 301 303 304 304 305 305 305 305
312 312 312 314 316 318 318 318 316 313 309 307 308 306 304 302 301 298 298 298 298 295 293 296 294 294 294 293 294 295 293 296 297 297 297 298 300 301 302 303 303 304 304
313 314 313 314 315 315 315 313 314 311 309 307 306 305 303 300 299 299 299 298 297 296 293 295 294 294 292 292 292 292 292 291 292 295 296 297 297 298 298 299 299 301 301
317 317 317 316 316 314 312 311 310 308 307 304 303 302 300 300 299 299 298 297 296 295 293 289 291 290 290 291 290 289 291 293 292 293 295 295 296 296 296 296 296 297 298
317 317 318 316 316 314 312 311 311 309 307 305 302 301 300 300 298 297 296 294 293 293 292 289 289 290 289 288 288 289 289 290 291 294 294 294 294 295 295 295 296 296 296
317 318 316 317 316 314 312 311 309 307 305 303 303 302 300 300 298 296 294 293 292 291 290 289 288 288 286 287 285 284 284 286 285 287 290 291 291 293 293 293 294 295 295
318 318 318 317 314 312 309 308 307 305 303 301 300 300 300 299 296 295 294 291 290 288 287 286 284 282 281 281 281 282 281 281 282 284 284 286 287 287 287 289 290 292 292
318 319 316 314 310 308 300 298 303 302 301 300 297 297 297 295 293 292 291 289 288 285 283 281 280 279 278 279 280 279 279 278 277 283 282 282 284 284 285 286 288 289 290
317 312 310 309 308 308 298 295 295 299 298 297 296 295 294 291 289 287 286 286 284 285 284 280 277 278 278 279 278 278 278 278 278 281 282 280 283 282 284 285 287 289 290
309 307 303 304 301 297 294 293 293 296 295 295 294 292 288 286 285 284 283 281 280 280 280 280 279 279 280 280 280 281 281 281 281 282 283 278 282 281 284 285 287 288 290
301 300 299 298 297 293 292 292 293 292 289 287 287 287 285 284 285 285 281 280 279 280 283 282 281 281 281 281 281 280 278 277 275 277 280 279 280 281 283 284 286 286 288
296 295 293 295 292 291 291 291 290 288 284 283 283 283 284 283 283 282 280 279 279 278 278 278 278 278 278 279 279 278 277 274 273 274 280 277 278 279 279 283 281 283 284
Wind_Speed
5 3 5 4 5 5 7 5 5 6 7 6 5 6 5 5 4 2 1 8 9 10 12 13 14 14 14 14 12 12 11 10 10 9 8 9 8 9 9 10 10 10 11
5 5 4 5 5 5 4 5 6 6 5 5 5 5 5 4 4 4 2 2 4 6 9 11 13 13 13 12 11 10 9 8 8 7 7 7 6 7 7 8 8 9 10
6 7 5 5 5 5 6 5 5 5 5 4 6 4 4 5 4 4 4 3 1 3 6 10 11 12 12 10 9 9 8 8 7 7 8 6 6 5 6 6 6 7 8
7 7 5 4 5 6 5 4 5 5 4 4 4 4 4 4 5 4 3 3 3 2 5 7 10 11 12 12 10 10 8 7 7 7 8 7 6 6 5 4 4 5 6
7 8 5 4 7 5 5 5 3 4 4 3 4 4 3 3 4 3 5 5 5 4 3 7 9 10 11 12 12 11 9 9 9 8 9 9 7 6 4 2 2 4 6
7 5 4 5 5 4 4 3 4 3 2 3 2 3 1 2 3 3 5 3 4 4 4 5 4 4 10 11 12 11 11 11 11 11 11 10 8 7 5 3 2 4 6
6 6 4 4 4 5 7 6 4 5 2 4 4 2 1 3 4 4 4 3 4 4 4 4 3 3 3 10 12 13 14 14 14 14 13 12 10 9 8 6 4 4 5
7 5 5 5 5 4 5 6 6 3 2 4 4 2 1 2 3 5 4 4 5 4 5 5 5 5 4 3 6 14 16 16 16 15 15 15 14 13 12 10 8 6 6
5 3 4 5 5 5 5 6 7 7 5 4 4 4 2 5 0 0 5 4 5 4 4 5 6 5 6 4 7 8 11 12 16 17 17 16 16 16 15 14 12 10 9
7 6 6 6 6 4 6 6 6 4 5 5 2 4 1 3 5 2 3 3 4 6 6 5 6 6 5 4 6 7 9 12 14 19 20 19 19 18 18 17 16 14 12
8 8 7 6 6 5 5 6 5 6 4 4 4 3 1 1 1 3 3 2 2 4 4 5 6 4 4 4 4 7 12 14 15 18 22 22 21 21 21 20 19 18 17
3 6 7 7 7 5 5 6 6 7 8 4 4 4 5 5 4 3 2 4 4 2 3 3 4 4 4 4 7 11 13 14 16 18 20 23 23 23 23 24 23 22 21
5 8 3 5 4 6 6 6 7 8 8 8 10 9 7 4 4 3 4 3 4 2 2 1 2 2 2 4 5 7 12 12 14 16 19 21 23 25 25 25 25 26 24
8 7 7 6 6 7 6 7 6 7 9 10 12 10 8 5 4 4 5 5 1 2 1 3 1 3 3 2 3 6 5 11 12 14 17 19 22 24 25 25 26 27 29
7 7 8 8 8 9 10 8 8 10 9 9 10 9 6 4 4 4 4 4 5 4 5 3 3 2 2 1 3 3 4 9 11 12 14 17 20 23 24 26 26 28 27
8 7 8 8 9 10 11 12 12 10 10 7 7 8 6 4 5 4 4 3 3 4 3 3 4 3 2 3 5 4 5 9 11 11 13 16 19 21 23 25 27 28 29
8 10 9 9 10 11 10 10 11 10 12 10 8 9 10 7 6 5 5 4 3 4 4 2 2 1 2 4 5 3 4 4 5 13 14 16 18 20 23 24 26 28 30
12 14 12 13 12 11 11 13 12 11 12 10 9 9 8 7 8 7 6 5 4 4 3 3 1 1 4 3 4 5 4 4 3 9 14 17 18 20 22 23 25 27 28
16 13 14 15 14 12 11 12 11 11 11 11 11 12 11 12 10 7 7 5 4 3 3 3 2 3 3 1 2 3 3 4 4 12 13 14 17 20 21 23 25 27 28
17 15 14 15 13 12 12 11 11 11 11 9 9 9 11 12 11 10 6 6 5 4 3 2 2 2 2 2 1 2 6 3 7 8 12 13 18 19 22 23 24 25 26
15 14 14 13 12 12 11 13 13 11 10 9 8 8 9 9 11 10 6 6 6 4 3 2 1 1 2 2 2 2 6 6 7 8 7 6 6 6 10 17 22 25 24
15 15 14 14 11 9 10 14 12 9 10 9 9 7 8 12 10 10 11 9 6 5 4 3 2 2 2 2 2 3 5 6 6 1 7 11 8 9 10 10 21 24 26
14 12 12 11 12 9 14 13 12 9 10 9 10 11 8 8 11 9 12 11 9 7 5 5 3 3 2 2 2 5 6 7 9 10 11 14 8 10 9 11 20 23 24
10 8 6 7 7 5 14 15 13 10 9 9 10 11 11 9 8 8 7 6 4 3 3 2 3 2 4 5 5 7 10 10 10 8 8 13 9 11 10 9 21 23 21
6 5 6 8 8 8 15 16 14 11 10 10 9 9 10 10 13 12 7 5 4 3 3 4 4 6 8 9 7 4 5 7 9 7 6 9 8 10 10 12 9 17 18
7 7 8 7 11 11 14 15 14 9 11 9 9 10 13 10 11 9 6 5 4 3 2 2 3 4 5 6 8 4 5 6 7 8 2 5 8 7 7 2 3 4 5
Wind_Direction
154 143 127 145 117 118 126 106 107 111 111 123 123 129 140 140 142 144 117 143 141 150 157 154 155 153 151 144 137 133 126 122 118 108 105 95 83 70 56 50 44 41 40
157 145 142 133 117 115 111 126 129 124 129 125 127 135 149 126 150 130 139 132 156 181 172 178 170 166 156 155 151 148 140 136 128 132 127 120 100 85 75 65 53 39 31
157 153 150 133 143 120 114 112 111 104 105 110 130 149 135 170 152 149 174 155 137 221 222 193 184 177 164 160 170 170 162 155 159 160 152 144 127 113 95 72 50 33 20
161 142 149 150 148 125 136 138 128 110 128 146 136 163 170 169 165 181 176 168 162 217 230 209 192 182 183 185 182 189 178 186 194 185 174 174 164 144 117 78 36 8 357
162 159 149 167 154 137 154 159 129 132 140 144 169 168 164 171 185 171 206 189 192 207 211 224 202 187 191 202 196 206 208 199 209 208 200 199 188 170 152 122 341 342 345
149 138 141 173 133 142 150 141 131 94 139 153 140 143 194 228 210 212 213 201 205 218 222 209 183 197 195 198 213 221 221 221 215 223 216 215 210 197 194 210 276 330 335
129 173 175 152 146 186 175 162 126 153 154 157 111 46 301 257 263 245 240 217 208 233 245 224 197 188 207 203 212 226 237 242 227 229 227 224 224 218 222 228 254 291 311
139 186 157 182 183 182 158 166 151 139 142 179 138 96 225 307 264 231 217 201 200 202 224 233 220 197 200 204 211 224 234 241 241 237 233 231 230 228 228 235 242 255 273
141 135 196 189 194 187 182 180 172 163 165 198 202 149 114 228 190 11 235 229 205 206 219 218 229 221 210 205 222 229 237 244 246 246 239 235 233 233 231 235 242 249 258
181 188 194 196 189 189 192 187 176 169 138 175 249 222 236 152 176 244 265 235 210 224 217 212 226 223 213 216 232 240 250 246 240 245 247 243 238 235 238 244 247 252 256
179 187 196 197 209 192 201 183 171 183 178 160 173 144 189 145 324 138 228 234 275 233 225 216 223 220 202 197 215 234 246 250 249 245 246 250 248 244 242 242 243 248 254
252 196 183 185 198 186 193 195 195 195 198 194 192 196 184 171 189 165 176 220 206 219 213 207 212 219 204 202 225 233 237 242 246 250 251 253 253 253 254 251 253 256 254
236 251 215 189 187 200 195 186 190 206 196 202 217 222 223 211 153 153 143 177 223 193 299 252 216 219 213 206 226 243 260 251 250 251 254 253 254 251 252 255 256 258 255
222 211 213 206 200 198 196 198 202 208 206 216 218 224 218 194 171 156 154 144 204 243 315 234 183 183 182 174 221 237 248 261 256 253 256 258 255 252 252 253 254 254 255
210 201 202 200 201 205 192 198 225 229 207 210 221 210 197 175 177 173 158 154 162 192 215 204 202 229 225 187 253 282 274 275 274 269 265 262 260 255 253 254 254 255 251
208 199 200 205 221 221 221 214 222 218 200 208 204 189 185 164 172 150 153 142 133 148 208 185 212 219 284 308 288 292 273 278 271 271 269 267 265 265 264 259 255 252 248
199 202 202 208 213 216 216 209 217 217 215 203 189 187 190 156 162 152 140 143 152 147 180 206 215 348 295 305 304 275 270 263 266 265 264 265 263 262 261 260 259 256 256
207 211 203 210 215 218 205 210 214 205 200 195 193 179 171 156 156 157 157 162 173 161 141 182 243 275 243 272 265 299 298 286 285 289 276 270 271 269 266 265 264 262 258
226 221 217 214 205 202 202 208 208 207 202 198 183 183 172 164 165 161 153 163 145 138 123 146 202 220 249 262 300 262 284 295 284 286 278 274 273 273 274 270 266 263 259
225 222 217 220 215 208 206 193 199 199 193 183 184 182 167 173 166 156 160 148 136 153 138 157 189 263 257 308 337 308 310 310 306 295 288 286 286 290 292 292 282 273 269
223 224 226 225 215 202 194 191 191 190 176 169 170 164 165 153 139 148 157 155 152 140 144 165 219 226 282 309 296 306 297 300 296 270 279 280 291 299 288 289 284 286 279
225 224 223 220 207 206 201 184 171 168 167 167 153 133 127 125 122 121 107 116 135 141 152 148 173 211 242 253 267 293 302 319 322 329 342 297 295 285 283 280 282 282 285
216 203 201 194 202 199 177 155 144 146 144 153 142 134 123 117 117 116 104 104 98 103 116 148 182 210 253 240 286 296 293 290 281 297 300 292 296 279 280 281 284 282 281
181 180 174 171 150 135 145 138 124 120 120 126 132 129 120 117 119 122 120 115 115 125 117 129 166 249 246 269 250 276 294 288 280 276 267 281 294 286 293 290 288 282 272
132 135 137 134 128 122 131 129 119 113 103 91 92 103 115 118 126 131 123 141 133 113 85 46 349 323 312 312 313 319 301 307 300 290 271 274 282 291 295 290 286 288 282
110 103 90 86 111 121 115 116 114 117 111 106 94 93 93 108 118 132 133 137 133 115 65 1 327 322 323 314 323 325 315 299 301 310 75 326 310 310 289 282 303 303 291